Location: Most
(50.5133°N, 13.6207°E)
Time: 14:25:10
(UTC+02:00)

ISS - Pass Details

Date: 18 September 2017
Orbit: 402 x 407 km, 51.6° (Epoch: 21 September)

Event Time Altitude Azimuth Distance (km) Brightness Sun altitude
Exits shadow 04:22:31 35° 115° (ESE) 673 -2.5 -22.2°
Drops below altitude 10° 04:24:34 10° 110° (ESE) 1,468 -0.5 -21.9°
Sets 04:26:39 0° 110° (ESE) 2,327 0.6 -21.7°
